www.pogodaiklimat.ru

Погода и климат >> Архив погоды >> Россия >> Эвенкия >> Тура


ПОГОДА в Туре

АРХИВ ПОГОДЫ в Туре

Время (UTC), дата Ветер
(напр.,м/с)
 
Видим.   Явления Облачность Т
(С)
Тd
(С)
f
(%)
Тe
(С)
Тes
(С)
Комфортность P
(гПа)
Po
(гПа)
Тmin
(С)
Tmax
(С)
R
(мм)
R24
(мм)
S
(см)
06 19.04 ЮЗ 5
{10}
20 км 9/6 600 м
[Cb cap Ci sp]
+1.3 -10.0 43 -4 -2 1000.3 977.0
09 19.04 Ю 4
{10}
20 км 8/0
[Ac trans Ci sp]
+2.4 -10.4 38 -2 +1 999.4 976.1
12 19.04 Ю 4
{11}
20 км 8/3 1000 м
[Cu hum Ci sp]
+2.0 -11.7 35 -2 -2 998.5 975.2 +3.1
15 19.04 Ю 3 н/о 10/10 600 м
[Cb cap]
+0.4 -8.8 50 -3 -3 997.0 973.6
18 19.04 штиль 0 н/о слабый ливневой снег 9/9 600 м
[Cb cap]
-1.8 -4.2 84 -3 -3 994.8 971.3
21 19.04 С 3 н/о слабая крупа {ливн. осадки} 10/10 600 м
[Cb cap]
-2.2 -4.4 85 -7 -7 993.8 970.2
00 20.04 З 3 1000 м ливневой снег 10/10 600 м
[Cb cap]
-4.1 -6.4 84 -9 -9 994.4 970.7 -4.1 2 15
03 20.04 З 4 2000 м слабый ливневой снег 10/10 600 м
[Cb cap]
-6.5 -7.0 96 -13 -13 996.7 972.7
06 20.04 СЗ 5 20 км позёмок {ливн. осадки, метель} 8/4 600 м
[Cb cap Ac trans Ci sp]
-5.3 -15.8 43 -12 -10 998.6 974.6
09 20.04 З 5-10
{11}
20 км позёмок {метель} 9/9 1000 м
[Sc]
-6.3 -18.5 37 -13 -13 1001.4 977.4
12 20.04 З 3
{11}
20 км слабый ливневой снег {метель} 10/10 600 м
[Cb cap]
-8.7 -12.7 73 -14 -14 1004.3 979.9 -4.1 0.4
15 20.04 ЮЗ 3 н/о слабый ливневой снег {метель} 10/10 600 м
[Cb cap]
-9.3 -12.3 79 -15 -15 1003.2 978.8
18 20.04 З 2 н/о слабый ливневой снег {метель} 10/10 600 м
[Cb cap]
-9.2 -11.2 85 -14 -14 1003.2 978.8
21 20.04 СЗ 1 н/о {ливн. осадки} 10/10 600 м
[Cb cap]
-10.6 -11.9 90 -13 -13 1005.5 981.0
00 21.04 З 2 20 км {ливн. осадки} 8/0
[Ac trans Ci fib]
-9.8 -12.4 81 -14 -13 1007.8 983.1 -11.0 1 15
03 21.04 СЗ 3 20 км позёмок {метель} 10/0
[Ci fib]
-0.6 -10.0 49 -5 -0 1009.2 985.4
06 21.04 СЗ 3 20 км {метель} 10/0
[Ci fib]
+2.6 -9.0 42 -1 +5 1010.5 986.9
09 21.04 С 4 20 км 8/8 1000 м
[Sc]
+3.0 -9.2 40 -1 -0 1012.0 988.4
12 21.04 З 4 20 км 4/0
[Ci fib]
+0.5 -11.0 42 -4 -4 1014.7 990.9 +3.8
15 21.04 С 1 н/о 3/3 1000 м
[Sc]
-3.2 -13.7 44 -5 -5 1017.3 993.0
18 21.04 СЗ 2 н/о ясно -7.2 -15.3 52 -11 -11 1019.6 995.0
21 21.04 СЗ 1 н/о ясно -11.6 -16.0 70 -14 -14 1021.7 996.7
00 22.04 З 1 20 км ясно -10.9 -15.3 70 -13 -11 1023.6 998.5 -13.4 11
03 22.04 С 2 20 км ясно -5.1 -13.0 54 -9 -2 1024.5 999.9
06 22.04 С 1 20 км ясно -1.2 -12.1 43 -2 +8 1023.5 999.3
09 22.04 СЗ 2 20 км ясно +1.0 -12.6 35 -1 +3 1023.5 999.5
12 22.04 ЮВ 1 20 км ясно +0.4 -11.8 39 -1 -0 1023.9 999.9 +1.5
15 22.04 штиль 0 н/о ясно -5.8 -11.9 62 -6 -6 1025.6 1000.9
18 22.04 штиль 0 н/о ясно -11.2 -14.0 80 -11 -11 1027.1 1002.0
21 22.04 штиль 0 н/о ясно -15.3 -17.3 85 -15 -15 1028.6 1002.9
00 23.04 ЮЗ 1 20 км ясно -13.1 -15.8 80 -15 -13 1029.2 1003.7 -16.2 10
03 23.04 Ю 1 20 км 1/0
[Ci fib]
-4.4 -11.4 58 -6 +2 1026.9 1002.4
06 23.04 ЮЗ 2 20 км 4/0
[Ac trans Ci fib]
+3.7 -8.7 40 +2 +9 1024.7 1000.9
09 23.04 ЮЗ 3 20 км 9/3 1000 м
[Sc Cs]
+5.3 -8.3 37 +3 +5 1023.1 999.5
12 23.04 Ю 3 20 км 9/4 1000 м
[Sc Ac trans Cs]
+5.4 -8.6 36 +3 +3 1022.8 999.2 +5.6
15 23.04 В 1 н/о 9/6 1000 м
[Sc Ac trans]
+3.3 -8.4 42 +3 +3 1022.9 999.1
18 23.04 В 1 н/о 10/10 600 м
[Cb cap]
0.0 -7.1 59 -1 -1 1023.1 999.0
21 23.04 Ю 1 н/о 10/10 600 м
[Cb cap]
+0.7 -6.2 60 -1 -1 1022.7 998.7
00 24.04 ЮЗ 2 20 км 10/5 1000 м
[Sc Ac trans]
+1.7 -6.4 55 -1 -1 1022.8 998.9 -0.5 7
03 24.04 штиль 0 20 км 10/0
[Ac trans Cs]
+6.1 -5.5 43 +6 +13 1021.8 998.3
06 24.04 ЮЗ 1 20 км 10/0
[Ac trans Cs]
+10.2 -7.0 29 +11 +16 1020.8 997.6
09 24.04 Ю 2 20 км 10/3 1000 м
[Sc Ac trans Cs]
+11.4 -8.6 24 +11 +13 1019.8 996.8
12 24.04 ЮЗ 1 20 км 10/6 600 м
[Cb cap Ac trans]
+10.0 -8.0 27 +10 +10 1020.0 996.9 +11.4
15 24.04 ЮВ 3 н/о 10/8 600 м
[Cb cap Cs]
+6.9 -6.8 37 +5 +5 1020.0 996.6
18 24.04 ЮВ 2 н/о 10/10 600 м
[Cb cap]
+2.5 -3.4 65 -0 -0 1020.5 996.8
21 24.04 штиль 0 н/о 10/10 600 м
[Cb cap]
+3.4 -4.0 58 +3 +3 1019.6 996.0
00 25.04 ЮВ 2 20 км 8/6 600 м
[Cb cap Ci fib]
+3.0 -3.8 61 0 +1 1018.6 995.0 +1.6 2
03 25.04 Ю 4 20 км 10/10 600 м
[Cb cap]
+8.6 -2.7 45 +6 +6 1016.0 992.8
06 25.04 ЮЗ 6-10
{13}
20 км 10/10 600 м
[Cb cap]
+8.7 -0.4 53 +5 +5 1016.4 993.2
09 25.04 З 6-10
{13}
20 км 8/8 600 м
[Cb cap]
+10.0 +0.7 52 +7 +7 1016.2 993.1
12 25.04 З 6-11
{14}
20 км 8/5 600 м
[Cb cap Ac trans]
+9.6 -1.1 47 +7 +7 1017.4 994.3 +11.5
15 25.04 З 4
{16}
н/о 3/3 600 м
[Cb cap]
+4.5 -5.5 48 +1 +1 1020.7 997.1
18 25.04 З 2 н/о 1/0
[Ci fib]
+2.7 -5.0 57 0 0 1020.7 997.0
21 25.04 З 4 н/о 1/1 1000 м
[Sc]
+1.2 -5.8 60 -3 -3 1021.4 997.5
00 26.04 З 4 20 км 10/0
[Cs]
+2.8 -6.0 52 -1 -0 1021.0 997.3 -0.5 <0.5
03 26.04 З 2 20 км 10/6 600 м
[Cb cap Ac und]
+6.2 -3.4 50 +4 +5 1020.1 996.7

 

Местоположение метеостанции Тура (Эвенкия, Россия): широта 64.33 долгота 100.40 высота над уровнем моря 624 м.

В архиве по умолчанию представлена погода в Туре за последнюю неделю. Архивные данные за месяц целиком и за предыдущие месяцы, начиная с января 2011 года, Вы можете получить, выбрав интересующий диапазон дат из раскрывающегося списка и нажав кнопку "Ввод!".

Внимание! Время в таблицах - всемирное. Для получения местного времени необходимо прибавить поправку, которая в Туре равна 7 ч.

Смотрите также архив погоды в соседних городах и на ближайших метеорологических станциях:

Погода в Тембенчи (Эвенкия, Россия) (99 км)
Погода в Кербо (Эвенкия, Россия) (182 км)
Погода в Кислокане (Эвенкия, Россия) (190 км)
Погода в Стрелке-Чуне (Эвенкия, Россия) (311 км)
Погода в Тутончанах (Эвенкия, Россия) (320 км)
Погода в Муторае (Эвенкия, Россия) (334 км)
Погода в Байките (Эвенкия, Россия) (359 км)
Погода в Агате (Эвенкия, Россия) (426 км)
Погода в Усть-Камо (Эвенкия, Россия) (428 км)
Погода в Ванаваре (Эвенкия, Россия) (456 км)

Пояснения к столбцам:

Ветер - указаны скорость ветра в м/с - средняя за 10 мин, порывы в срок и между сроками (в фигурных скобках) и направление, откуда дует ветер: С - северный, СВ - северо-восточный, В - восточный, ЮВ - юго-восточный, Ю - южный, ЮЗ - юго-западный, З - западный, СЗ - северо-западный.
Видимость - горизонтальная дальность видимости в метрах или километрах. При видимости от 1 до 10 км при отсутствии осадков обычно наблюдается дымка, при ухудшении видимости до 1 км и менее - туман. В сухую погоду видимость может ухудшаться дымом, пылью или мглою.
Явления - указаны атмосферные явления, наблюдавшиеся в срок или в последний час перед сроком; фигурными скобками обозначены явления, наблюдавшиеся между сроками (за 1-3 часа до срока); квадратными скобками обозначены град или гололедные отложения с указанием их диаметра в мм.
Облачность - указаны через наклонную черту общая и нижняя облачность в баллах и высота нижней границы облаков в метрах; квадратными скобками обозначены формы облаков: Ci - перистые, Cs - перисто-слоистые, Cc - перисто-кучевые, Ac - высококучевые, As - высокослоистые, Sc - слоисто-кучевые, Ns - слоисто-дождевые, Cu - кучевые, Cb - кучево-дождевые. Подробнее классификацию облаков см. в Атласе облаков (PDF).
T - Температура воздуха - температура, измеренная на высоте 2 м над землей.
Td - Температура точки росы - температура, при понижении до которой содержащийся в воздухе водяной пар достигнет насыщения.
f - Относительная влажность воздуха - влажноcть воздуха, измеренная на высоте 2 м над землей.
Te - Эффективная температура - температура, которую ощущает одетый по сезону человек в тени. Характеристика душности погоды. При расчете учитывается влияние влажности воздуха и скорости ветра на теплоощущения человека.
Tes - Эффективная температура на солнце - температура, которую ощущает человек, с поправкой на солнечный нагрев. Характеристика знойности погоды. Зависит от высоты солнца над горизонтом, облачности и скорости ветра. Ночью, в пасмурную погоду, а также при ветре 12 м/с и более поправка равна нулю.
P - Атмосферное давление - приведенное к уровню моря атмосферное давление.
Po - Атмосферное давление - измеренное на уровне метеостанции атмосферное давление.
Tmin - Минимальная температура - минимум температуры воздуха на высоте 2 м над землей.
Tmax - Максимальная температура - максимум температуры воздуха на высоте 2 м над землей.
R - Количество осадков - Количество выпавших осадков за период времени, мм. При наведении курсора мыши на число - период времени, за который выпало указанное количество осадков.
R24 - Количество осадков - Количество выпавших осадков за 24 часа, мм.
S - Снежный покров - Высота снежного покрова, см. При наведении курсора мыши на число - состояние снежного покрова и степень покрытия местности в баллах.